Regional Weather Roundup
Issued by NWS

Home | Current Version | Previous Version | Text Only | Print | Product List | Glossary On
Versions: 1 2 3 4 5 6 7 8 9 10 11 12 13 14 15 16 17 18 19 20 21 22 23 24 25 26 27 28 29 30 31 32 33 34 35 36 37 38 39 40 41 42 43 44 45 46 47
000
ASUS44 KBMX 271610
RWRAL

ALABAMA REGIONAL WEATHER ROUNDUP
NATIONAL WEATHER SERVICE BIRMINGHAM AL
1000 AM CST SAT DEC 27 2014

NOTE: "FAIR" INDICATES FEW OR NO CLOUDS BELOW 12,000 FEET
WITH NO SIGNIFICANT WEATHER AND/OR OBSTRUCTIONS TO VISIBILITY.

THE REMARK "TC" DENOTES TEMPERATURE IN DEGREES CELSIUS.

ALZ001>011-014-016>018-020-271700-
NORTH ALABAMA

CITY           SKY/WX    TMP DP  RH WIND       PRES   REMARKS
MUSCLE SHOALS  CLOUDY    50  44  80 S13       30.27S
HUNTSVILLE     LGT RAIN  50  44  80 SE12      30.30R
DECATUR        LGT RAIN  49  45  86 S10       30.30R
HALEYVILLE     LGT RAIN  46  45  93 SE12      30.29S
GADSDEN        CLOUDY    46  41  81 E3        30.35R
$$

ALZ012-013-022-023-030>036-040>044-271700-
WEST CENTRAL ALABAMA

CITY           SKY/WX    TMP DP  RH WIND       PRES   REMARKS
TUSCALOOSA     LGT RAIN  50  47  89 E7        30.28F FOG
$$

ALZ015-024>027-033>036-040>044-271700-
CENTRAL ALABAMA

CITY           SKY/WX    TMP DP  RH WIND       PRES   REMARKS
BIRMINGHAM     CLOUDY    49  45  86 SE6       30.34S
MONTGOMERY     CLOUDY    54  41  61 E7        30.32F
SHELBY CO ARPT CLOUDY    49  45  86 E3        30.32F
MAXWELL AFB    CLOUDY    50  45  82 NE5       30.32F
GREENVILLE     PTSUNNY   56  46  69 E8        30.28F
$$

ALZ019-021-028-029-037-038-045>048-271700-
EAST CENTRAL ALABAMA

CITY           SKY/WX    TMP DP  RH WIND       PRES   REMARKS
ANNISTON       LGT RAIN  48  42  80 NE5       30.34S
ALEXANDER CITY DRIZZLE   49  44  81 CALM      30.33F
AUBURN         CLOUDY    50  37  62 E5        30.36S
$$

ALZ051>064-271700-
SOUTHWEST ALABAMA

CITY           SKY/WX    TMP DP  RH WIND       PRES   REMARKS
MOBILE         CLOUDY    60  55  83 E9        30.21F
BROOKLEY FIELD LGT RAIN  59  56  89 N7        30.23F
EVERGREEN      CLOUDY    56  47  71 E7        30.28S
$$

ALZ049-050-065>069-271700-
SOUTHEAST ALABAMA

CITY           SKY/WX    TMP DP  RH WIND       PRES   REMARKS
DOTHAN         PTSUNNY   57  49  74 SE5       30.34S
OZARK          PTSUNNY   56  47  72 E3        30.29F
TROY           CLOUDY    56  47  71 MISG      30.31F
EUFAULA        FAIR      57  46  66 N3        30.31S
$$


USA.gov is the U.S. government's official web portal to all federal, state and local government web resources and services.